一网星座-0538星 (ONEWEB-0538)

导读

ONEWEB-0538是英国OneWeb星座所属的第二代低轨通信卫星,于2023年3月26日发射。该卫星运行于1200公里近地轨道,属于小卫星范畴,配备Ku/Ka波段通信天线,采用氙气电推进,设计寿命约5年。作为OneWeb全球低轨互联网星座的组成部分,它可为全球偏远地区、海陆空移动载体提供低延迟宽带通信服务,后续二代星座还将拓展导航定位功能。

Basic Information
目录编号:
56047
目录名称:
ONEWEB-0538
国际标识:
2023-043B
轨道中心:
EARTH
卫星名称:
一网星座-0538星
卫星全名:
一网星座-0538星 (ONEWEB-0538)
卫星状态:
在轨 (已飞行1266 天)
发射日期:
2023-03-26 UTC
国别 :
英国 (GB)
星等 :
--
This satellite is enrolled in the Space Conjunction Data Service (SCDS) and the current flight risk assessment level is: No High Risk
Orbit Information
数据来源 国际轨道数据 AOE轨道数据
星历时间 2026-09-12T05:37:08+0800
6小时前
查看轨道信息
2026-09-11T07:00:00+0800
1天前
查看轨道信息
半长轴 7575.896km 7575.894km
偏心率 0.0001866 0.0002066
轨道倾角 87.914° 87.915°
近地点辐角 73.841° 70.171°
升交点赤经 211.555° 211.741°
平近点角 286.292° 145.514°
近地点 1196.345km 1196.191km
远地点 1199.173km 1199.323km
周期 109.373分钟 109.373分钟
每日圈数 13.165939 13.165943
Detailed Information
平衡模式:
三轴稳定
覆盖范围:
全球
运营商:
一网卫星公司
运营商所在国:
英国
制造商(研发单位):
一网卫星公司
制造商所在国:
英国
使用方式:
暂无
Satellite Introduction
OneWeb卫星网络由648颗重约125公斤的微型卫星组成,运行在1200公里的轨道上。 每颗卫星都能够提供至少每秒8千兆位的吞吐量,以使用其高吞吐量的Ku频段有效载荷为家庭和移动平台提供互联网接入。该卫星仍在工作。
2D Orbit Map
3D Orbit Map
Orbit Altitude Analysis Chart
Orbit Inclination Analysis Chart
Orbit Comprehensive Analysis Chart
View Comprehensive Chart
Conjunction Data List
Event ID Objects TCA Miss Dist (km) Collision Risk Probability Collision Risk Index (CRI) Action
CDM_260912-114601-602005-604725
2026-09-12T
11:46:58+0000
1.176 km
极远距离
1.505057E-5 中风险 0.59
Miss Distance Evolution Trend with All Objects
Collision Probability Evolution Trend with All Objects